Cloud_Cover
100 100 100 100 94 100 100 85 100 98 0 1 12 5 90 94 99 100 100 0 3 0 0 2 0 0 0 0 4 0 0 0 0 0 0 0 0 0 96 43 11 0 0 0 0 0 2 0 0
100 100 100 100 100 100 100 99 100 94 6 85 99 14 18 5 46 83 100 0 2 0 2 4 0 0 0 2 0 0 0 1 0 0 0 0 0 0 5 57 22 5 0 2 0 0 0 0 0
100 100 100 100 100 100 100 94 99 65 100 100 100 100 40 15 87 50 5 24 5 0 2 4 0 5 3 5 3 0 0 0 0 0 0 0 0 0 0 8 30 5 1 0 0 0 3 4 2
100 100 100 100 100 100 100 100 100 92 100 100 100 100 100 6 94 40 5 31 7 5 3 0 0 5 5 5 14 0 0 0 0 0 0 0 0 0 0 0 3 0 0 0 0 0 3 34 5
100 100 100 100 100 100 100 100 100 100 100 100 100 100 100 100 100 62 4 32 42 42 1 2 0 2 0 0 11 8 3 0 0 0 0 0 0 0 0 1 5 0 0 0 0 0 5 0 5
100 100 100 100 100 100 100 100 100 100 100 100 100 100 100 100 100 100 16 6 16 8 5 51 5 5 0 0 0 0 1 1 0 0 0 0 0 0 0 0 1 0 0 0 0 0 0 5 5
93 100 100 100 100 100 100 100 100 100 100 100 100 83 97 100 100 100 100 6 68 5 12 65 22 5 5 1 0 0 0 0 0 0 0 0 0 0 0 0 2 5 3 0 5 1 3 88 23
100 80 84 100 100 100 100 100 100 100 100 100 100 100 100 95 100 100 100 77 31 74 9 5 7 81 56 5 5 5 0 0 0 0 0 0 0 2 1 1 5 0 0 4 5 5 5 5 5
100 100 100 100 100 100 100 100 100 100 100 100 100 100 100 100 100 100 100 100 20 10 5 7 26 5 5 5 5 8 0 5 1 5 0 16 0 0 5 5 5 5 5 5 5 1 5 32 12
2 69 100 100 100 100 100 99 92 75 100 100 100 100 100 100 100 100 100 100 100 100 100 92 15 10 5 23 4 5 2 3 1 2 0 5 4 2 2 1 5 3 5 5 5 5 5 16 5
0 0 23 100 100 99 91 100 100 67 76 100 100 100 94 100 100 100 100 100 100 100 100 100 100 75 6 12 43 5 5 59 40 5 5 4 5 5 0 0 4 13 38 5 5 5 5 21 5
0 0 0 0 5 12 46 91 83 92 98 75 100 100 100 100 100 100 100 100 100 100 100 100 100 79 77 74 68 69 93 52 26 89 9 12 18 5 1 5 6 94 53 21 5 5 5 5 64
0 0 0 0 0 1 1 4 5 4 49 60 52 100 100 100 100 100 100 100 100 100 100 100 100 100 100 98 100 96 95 93 57 31 89 29 6 100 5 11 16 43 17 40 62 5 5 13 28
0 0 0 0 0 0 0 0 0 3 61 78 33 58 100 100 100 100 100 100 100 100 100 100 100 100 100 100 100 100 100 100 78 99 100 100 76 48 36 32 98 18 17 85 83 42 30 34 31
0 0 0 0 0 0 0 0 0 0 0 31 80 99 18 100 100 100 100 100 100 100 100 100 100 100 100 100 100 99 100 100 100 79 100 100 82 86 100 100 51 48 73 77 27 90 70 20 51
0 0 0 0 0 0 0 0 0 0 0 0 25 100 24 51 100 100 100 100 100 100 100 100 100 100 100 100 100 100 100 100 100 100 100 96 100 100 100 100 100 69 100 100 98 67 91 99 98
0 0 0 0 0 0 0 0 0 0 0 0 3 99 90 100 42 100 100 100 100 100 100 100 100 100 100 100 100 100 100 100 100 100 100 100 100 100 100 100 100 100 100 89 97 94 90 80 59
4 8 0 0 10 0 0 0 0 0 0 0 0 14 100 100 7 86 93 100 100 100 100 100 100 100 100 100 100 100 100 100 100 100 100 100 100 99 100 100 100 100 100 98 89 100 100 100 94
0 0 2 5 0 0 0 0 0 0 0 0 0 0 0 1 18 41 83 99 100 100 100 100 100 100 100 100 100 100 100 100 100 100 100 100 100 96 100 100 100 98 100 100 60 58 33 40 100
0 0 0 0 0 0 0 0 0 0 0 0 0 0 0 91 100 46 64 98 92 100 100 100 100 100 100 100 100 100 100 100 100 100 100 100 100 100 100 100 96 100 100 100 40 8 77 21 14
0 0 0 3 4 0 0 0 0 0 0 0 0 0 0 70 99 98 96 100 70 100 80 100 100 100 100 100 100 100 100 100 100 100 100 100 100 100 100 100 98 100 100 95 100 100 95 20 11
0 3 2 0 0 0 0 0 0 0 0 0 0 0 0 1 100 99 100 100 95 36 100 99 100 100 100 100 100 100 100 100 100 100 100 100 100 100 100 100 100 100 100 100 85 100 97 54 14
5 5 4 0 0 0 0 0 0 0 0 0 0 0 0 0 80 100 100 100 100 100 100 100 100 100 100 100 100 100 100 100 100 100 100 100 100 82 100 100 100 100 100 69 84 91 99 45 70
8 5 3 1 0 0 0 0 0 40 0 0 0 0 0 0 7 100 100 97 100 100 100 100 100 100 100 100 100 100 100 100 100 100 100 100 100 100 100 100 100 100 95 89 57 67 94 100 11
64 26 4 19 86 2 32 0 0 1 0 0 0 0 0 0 0 72 100 62 100 100 100 100 100 100 100 100 100 100 100 100 100 100 100 100 100 100 100 100 100 100 100 79 95 58 50 80 18
100 100 100 100 100 100 99 10 68 2 4 0 0 0 0 0 0 0 98 100 26 100 100 100 100 100 100 100 100 100 100 97 100 100 100 100 100 100 100 100 100 100 49 78 89 39 51 48 93
100 100 100 100 100 95 68 68 74 0 0 0 0 0 0 0 0 3 5 98 100 95 100 100 100 100 100 100 100 100 100 100 100 100 100 98 60 99 100 94 100 97 56 83 100 52 92 95 100
100 100 100 100 100 100 100 100 100 100 97 49 5 4 2 1 5 5 5 5 100 100 100 100 100 100 100 100 100 100 100 100 100 100 100 100 100 85 34 77 84 100 100 100 97 97 94 100 100
100 88 100 100 100 100 100 100 100 100 100 96 10 5 5 5 5 4 5 5 5 97 100 100 100 100 100 100 100 60 100 100 100 100 100 100 100 100 97 95 97 100 100 100 100 100 100 100 100
100 97 100 100 100 100 100 100 100 100 100 56 37 5 61 5 5 4 5 5 2 5 29 99 43 100 100 100 100 100 100 100 100 99 100 100 100 100 100 100 100 100 100 100 100 100 100 100 100